Time,TemperatureF,DewpointF,PressureIn,WindDirection,WindDirectionDegrees,WindSpeedMPH,WindSpeedGustMPH,Humidity,HourlyPrecipIn,Conditions,Clouds,dailyrainin,SoftwareType,DateUTC
2013-03-21 00:00:00,24.1,14.1,29.83,NW,312,5.0,18.0,65,0.00,,,0.00,VWS V12.07,2013-03-21 04:00:00,
2013-03-21 00:10:00,23.9,13.9,29.83,NW,306,4.0,17.0,65,0.00,,,0.00,VWS V12.07,2013-03-21 04:10:00,
2013-03-21 00:20:00,23.6,12.1,29.83,NNW,348,10.0,13.0,61,0.00,,,0.00,VWS V12.07,2013-03-21 04:20:00,
2013-03-21 00:30:00,23.6,11.0,29.83,NW,308,7.0,19.0,58,0.00,,,0.00,VWS V12.07,2013-03-21 04:30:00,
2013-03-21 00:40:00,23.5,10.9,29.83,NW,307,1.0,14.0,58,0.00,,,0.00,VWS V12.07,2013-03-21 04:40:00,
2013-03-21 00:50:00,23.2,10.2,29.83,WNW,294,8.0,12.0,57,0.00,,,0.00,VWS V12.07,2013-03-21 04:50:00,
2013-03-21 01:00:00,23.0,9.2,29.82,WNW,289,10.0,17.0,55,0.00,,,0.00,VWS V12.07,2013-03-21 05:00:00,
2013-03-21 01:10:00,22.7,9.0,29.82,NNW,329,5.0,12.0,55,0.00,,,0.00,VWS V12.07,2013-03-21 05:10:00,
2013-03-21 01:20:00,22.2,7.7,29.81,WNW,296,5.0,12.0,53,0.00,,,0.00,VWS V12.07,2013-03-21 05:20:00,
2013-03-21 01:30:00,21.9,7.8,29.80,WNW,290,0.0,10.0,54,0.00,,,0.00,VWS V12.07,2013-03-21 05:30:00,
2013-03-21 01:40:00,21.3,6.8,29.80,WNW,288,3.0,11.0,53,0.00,,,0.00,VWS V12.07,2013-03-21 05:40:00,
2013-03-21 01:50:00,21.1,3.6,29.78,NW,311,4.0,14.0,46,0.00,,,0.00,VWS V12.07,2013-03-21 05:50:00,
2013-03-21 02:00:00,20.8,3.3,29.77,WNW,298,4.0,12.0,46,0.00,,,0.00,VWS V12.07,2013-03-21 06:00:00,
2013-03-21 02:10:00,20.5,4.4,29.77,WNW,301,7.0,17.0,49,0.00,,,0.00,VWS V12.07,2013-03-21 06:10:00,
2013-03-21 02:20:00,20.5,3.0,29.77,WNW,286,5.0,16.0,46,0.00,,,0.00,VWS V12.07,2013-03-21 06:20:00,
2013-03-21 02:30:00,20.0,4.4,29.78,WNW,292,4.0,10.0,50,0.00,,,0.00,VWS V12.07,2013-03-21 06:30:00,
2013-03-21 02:40:00,19.7,4.9,29.78,WNW,298,4.0,11.0,52,0.00,,,0.00,VWS V12.07,2013-03-21 06:40:00,
2013-03-21 02:50:00,19.7,4.9,29.77,NNW,339,4.0,17.0,52,0.00,,,0.00,VWS V12.07,2013-03-21 06:50:00,
2013-03-21 03:00:00,19.7,4.9,29.75,West,280,5.0,19.0,52,0.00,,,0.00,VWS V12.07,2013-03-21 07:00:00,
2013-03-21 03:10:00,19.5,5.2,29.75,West,267,4.0,19.0,53,0.00,,,0.00,VWS V12.07,2013-03-21 07:10:00,
2013-03-21 03:20:00,19.2,5.3,29.76,WNW,288,7.0,20.0,54,0.00,,,0.00,VWS V12.07,2013-03-21 07:20:00,
2013-03-21 03:30:00,19.2,4.5,29.76,WNW,298,12.0,21.0,52,0.00,,,0.00,VWS V12.07,2013-03-21 07:30:00,
2013-03-21 03:40:00,18.9,4.6,29.76,NW,306,5.0,26.0,53,0.00,,,0.00,VWS V12.07,2013-03-21 07:40:00,
2013-03-21 03:50:00,18.6,4.3,29.75,NW,308,5.0,21.0,53,0.00,,,0.00,VWS V12.07,2013-03-21 07:50:00,
2013-03-21 04:00:00,18.4,3.7,29.75,NNE,20,8.0,19.0,52,0.00,,,0.00,VWS V12.07,2013-03-21 08:00:00,
2013-03-21 04:10:00,18.0,3.3,29.75,WNW,296,14.0,18.0,52,0.00,,,0.00,VWS V12.07,2013-03-21 08:10:00,
2013-03-21 04:20:00,18.0,2.1,29.76,WNW,290,5.0,19.0,49,0.00,,,0.00,VWS V12.07,2013-03-21 08:20:00,
2013-03-21 04:30:00,17.8,1.9,29.76,NW,308,3.0,16.0,49,0.00,,,0.00,VWS V12.07,2013-03-21 08:30:00,
2013-03-21 04:40:00,17.5,2.0,29.76,WNW,299,6.0,15.0,50,0.00,,,0.00,VWS V12.07,2013-03-21 08:40:00,
2013-03-21 04:50:00,17.3,2.7,29.76,NW,309,14.0,20.0,52,0.00,,,0.00,VWS V12.07,2013-03-21 08:50:00,
2013-03-21 05:00:00,17.2,2.6,29.76,WNW,292,7.0,16.0,52,0.00,,,0.00,VWS V12.07,2013-03-21 09:00:00,
2013-03-21 05:10:00,17.0,2.4,29.76,WNW,295,10.0,19.0,52,0.00,,,0.00,VWS V12.07,2013-03-21 09:10:00,
2013-03-21 05:20:00,16.9,2.3,29.77,WNW,292,17.0,20.0,52,0.00,,,0.00,VWS V12.07,2013-03-21 09:20:00,
2013-03-21 05:30:00,16.7,2.1,29.78,West,281,8.0,18.0,52,0.00,,,0.00,VWS V12.07,2013-03-21 09:30:00,
2013-03-21 05:40:00,16.5,3.2,29.78,NW,325,6.0,19.0,55,0.00,,,0.00,VWS V12.07,2013-03-21 09:40:00,
2013-03-21 05:50:00,16.2,3.7,29.77,NNW,340,6.0,12.0,57,0.00,,,0.00,VWS V12.07,2013-03-21 09:50:00,
2013-03-21 06:00:00,15.9,3.8,29.78,NW,323,4.0,12.0,58,0.00,,,0.00,VWS V12.07,2013-03-21 10:00:00,
2013-03-21 06:10:00,15.9,4.1,29.78,WNW,296,7.0,17.0,59,0.00,,,0.00,VWS V12.07,2013-03-21 10:10:00,
2013-03-21 06:20:00,15.7,4.7,29.79,WNW,292,7.0,15.0,61,0.00,,,0.00,VWS V12.07,2013-03-21 10:20:00,
2013-03-21 06:30:00,15.6,4.6,29.79,West,270,5.0,25.0,61,0.00,,,0.00,VWS V12.07,2013-03-21 10:30:00,
2013-03-21 06:40:00,15.4,4.4,29.79,WNW,284,2.0,15.0,61,0.00,,,0.00,VWS V12.07,2013-03-21 10:40:00,
2013-03-21 06:50:00,15.2,4.9,29.80,WNW,300,13.0,17.0,63,0.00,,,0.00,VWS V12.07,2013-03-21 10:50:00,
2013-03-21 07:00:00,15.2,5.2,29.80,SW,236,6.0,21.0,64,0.00,,,0.00,VWS V12.07,2013-03-21 11:00:00,
2013-03-21 07:10:00,15.4,5.4,29.80,West,273,9.0,13.0,64,0.00,,,0.00,VWS V12.07,2013-03-21 11:10:00,
2013-03-21 07:20:00,15.7,5.7,29.81,NW,306,9.0,14.0,64,0.00,,,0.00,VWS V12.07,2013-03-21 11:20:00,
2013-03-21 07:30:00,15.7,5.7,29.81,West,271,6.0,19.0,64,0.00,,,0.00,VWS V12.07,2013-03-21 11:30:00,
2013-03-21 07:40:00,15.9,6.2,29.81,WSW,257,10.0,15.0,65,0.00,,,0.00,VWS V12.07,2013-03-21 11:40:00,
2013-03-21 07:50:00,15.7,5.7,29.81,WSW,250,5.0,11.0,64,0.00,,,0.00,VWS V12.07,2013-03-21 11:50:00,
2013-03-21 08:00:00,15.6,5.3,29.81,WNW,290,11.0,18.0,63,0.00,,,0.00,VWS V12.07,2013-03-21 12:00:00,
2013-03-21 08:10:00,15.7,5.0,29.81,West,272,6.0,17.0,62,0.00,,,0.00,VWS V12.07,2013-03-21 12:10:00,
2013-03-21 08:20:00,16.2,5.5,29.83,WNW,289,12.0,21.0,62,0.00,,,0.00,VWS V12.07,2013-03-21 12:20:00,
2013-03-21 08:30:00,17.0,5.5,29.82,WNW,287,15.0,22.0,60,0.00,,,0.00,VWS V12.07,2013-03-21 12:30:00,
2013-03-21 08:40:00,17.3,5.8,29.82,NW,305,5.0,20.0,60,0.00,,,0.00,VWS V12.07,2013-03-21 12:40:00,
2013-03-21 08:50:00,18.3,4.8,29.83,NNW,338,7.0,12.0,55,0.00,,,0.00,VWS V12.07,2013-03-21 12:50:00,
2013-03-21 09:00:00,18.3,4.8,29.82,WNW,298,11.0,17.0,55,0.00,,,0.00,VWS V12.07,2013-03-21 13:00:00,
2013-03-21 09:10:00,18.4,5.7,29.82,West,261,9.0,17.0,57,0.00,,,0.00,VWS V12.07,2013-03-21 13:10:00,
2013-03-21 09:20:00,18.3,5.6,29.84,North,9,2.0,15.0,57,0.00,,,0.00,VWS V12.07,2013-03-21 13:20:00,
2013-03-21 09:30:00,18.4,5.3,29.84,West,259,7.0,14.0,56,0.00,,,0.00,VWS V12.07,2013-03-21 13:30:00,
2013-03-21 09:40:00,18.9,6.2,29.84,WNW,287,10.0,17.0,57,0.00,,,0.00,VWS V12.07,2013-03-21 13:40:00,
2013-03-21 09:50:00,19.5,7.1,29.84,NNE,18,0.0,16.0,58,0.00,,,0.00,VWS V12.07,2013-03-21 13:50:00,
2013-03-21 10:00:00,19.9,6.3,29.84,WNW,293,10.0,13.0,55,0.00,,,0.00,VWS V12.07,2013-03-21 14:00:00,
2013-03-21 10:10:00,20.0,7.2,29.84,North,350,2.0,19.0,57,0.00,,,0.00,VWS V12.07,2013-03-21 14:10:00,
2013-03-21 10:20:00,19.9,5.5,29.86,NW,324,10.0,19.0,53,0.00,,,0.00,VWS V12.07,2013-03-21 14:20:00,
2013-03-21 10:30:00,19.5,6.0,29.86,WSW,254,12.0,20.0,55,0.00,,,0.00,VWS V12.07,2013-03-21 14:30:00,
2013-03-21 10:40:00,20.3,6.3,29.86,North,360,7.0,17.0,54,0.00,,,0.00,VWS V12.07,2013-03-21 14:40:00,
2013-03-21 10:50:00,21.4,5.2,29.85,West,279,13.0,19.0,49,0.00,,,0.00,VWS V12.07,2013-03-21 14:50:00,
2013-03-21 11:00:00,21.3,6.4,29.86,North,360,6.0,21.0,52,0.00,,,0.00,VWS V12.07,2013-03-21 15:00:00,
2013-03-21 11:10:00,21.6,5.4,29.86,NW,314,14.0,26.0,49,0.00,,,0.00,VWS V12.07,2013-03-21 15:10:00,
2013-03-21 11:20:00,21.9,6.1,29.87,West,277,1.0,19.0,50,0.00,,,0.00,VWS V12.07,2013-03-21 15:20:00,
2013-03-21 11:30:00,22.1,5.9,29.86,NNW,336,10.0,18.0,49,0.00,,,0.00,VWS V12.07,2013-03-21 15:30:00,
2013-03-21 11:40:00,21.9,8.6,29.86,NW,325,5.0,22.0,56,0.00,,,0.00,VWS V12.07,2013-03-21 15:40:00,
2013-03-21 11:50:00,21.8,5.6,29.86,NW,314,6.0,24.0,49,0.00,,,0.00,VWS V12.07,2013-03-21 15:50:00,
2013-03-21 12:00:00,22.9,8.8,29.87,West,273,12.0,19.0,54,0.00,,,0.00,VWS V12.07,2013-03-21 16:00:00,
2013-03-21 12:10:00,23.6,9.4,29.87,North,9,8.0,20.0,54,0.00,,,0.00,VWS V12.07,2013-03-21 16:10:00,
2013-03-21 12:20:00,23.2,8.2,29.87,WNW,288,9.0,26.0,52,0.00,,,0.00,VWS V12.07,2013-03-21 16:20:00,
2013-03-21 12:30:00,23.5,8.9,29.87,WNW,293,5.0,17.0,53,0.00,,,0.00,VWS V12.07,2013-03-21 16:30:00,
2013-03-21 12:40:00,23.0,7.6,29.87,West,278,7.0,22.0,51,0.00,,,0.00,VWS V12.07,2013-03-21 16:40:00,
2013-03-21 12:50:00,23.6,9.0,29.87,WNW,301,6.0,22.0,53,0.00,,,0.00,VWS V12.07,2013-03-21 16:50:00,
2013-03-21 13:00:00,23.9,8.9,29.87,NNE,23,9.0,17.0,52,0.00,,,0.00,VWS V12.07,2013-03-21 17:00:00,
2013-03-21 13:10:00,24.1,10.7,29.87,North,9,10.0,22.0,56,0.00,,,0.00,VWS V12.07,2013-03-21 17:10:00,
2013-03-21 13:20:00,23.5,8.9,29.88,WNW,284,11.0,21.0,53,0.00,,,0.00,VWS V12.07,2013-03-21 17:20:00,
2013-03-21 13:30:00,23.6,8.6,29.88,West,261,9.0,22.0,52,0.00,,,0.00,VWS V12.07,2013-03-21 17:30:00,
2013-03-21 13:40:00,23.0,8.4,29.88,WNW,286,19.0,23.0,53,0.00,,,0.00,VWS V12.07,2013-03-21 17:40:00,
2013-03-21 13:50:00,23.9,8.0,29.88,NNW,336,3.0,23.0,50,0.00,,,0.00,VWS V12.07,2013-03-21 17:50:00,
2013-03-21 14:00:00,24.4,8.9,29.88,NW,310,6.0,24.0,51,0.00,,,0.00,VWS V12.07,2013-03-21 18:00:00,
2013-03-21 14:10:00,24.4,9.7,29.88,West,281,9.0,22.0,53,0.00,,,0.00,VWS V12.07,2013-03-21 18:10:00,
2013-03-21 14:20:00,24.1,9.0,29.88,NNW,332,6.0,19.0,52,0.00,,,0.00,VWS V12.07,2013-03-21 18:20:00,
2013-03-21 14:30:00,23.5,7.6,29.88,NNW,343,3.0,25.0,50,0.00,,,0.00,VWS V12.07,2013-03-21 18:30:00,
2013-03-21 14:40:00,23.3,8.3,29.88,NW,319,10.0,22.0,52,0.00,,,0.00,VWS V12.07,2013-03-21 18:40:00,
2013-03-21 14:50:00,23.8,9.2,29.88,West,275,5.0,23.0,53,0.00,,,0.00,VWS V12.07,2013-03-21 18:50:00,
2013-03-21 15:00:00,24.2,9.1,29.88,NW,313,2.0,17.0,52,0.00,,,0.00,VWS V12.07,2013-03-21 19:00:00,
2013-03-21 15:10:00,24.2,8.3,29.88,NNW,331,2.0,18.0,50,0.00,,,0.00,VWS V12.07,2013-03-21 19:10:00,
2013-03-21 15:20:00,24.1,9.0,29.90,NW,311,6.0,18.0,52,0.00,,,0.00,VWS V12.07,2013-03-21 19:20:00,
2013-03-21 15:30:00,24.4,8.4,29.90,NNW,341,5.0,15.0,50,0.00,,,0.00,VWS V12.07,2013-03-21 19:30:00,
2013-03-21 15:40:00,24.7,8.7,29.90,NNW,328,6.0,15.0,50,0.00,,,0.00,VWS V12.07,2013-03-21 19:40:00,
2013-03-21 15:50:00,24.2,7.8,29.90,WNW,298,14.0,19.0,49,0.00,,,0.00,VWS V12.07,2013-03-21 19:50:00,
2013-03-21 16:00:00,24.1,8.2,29.90,West,280,12.0,23.0,50,0.00,,,0.00,VWS V12.07,2013-03-21 20:00:00,
2013-03-21 16:10:00,24.5,9.4,29.90,North,355,4.0,19.0,52,0.00,,,0.00,VWS V12.07,2013-03-21 20:10:00,
2013-03-21 16:20:00,24.8,7.9,29.90,NW,306,5.0,25.0,48,0.00,,,0.00,VWS V12.07,2013-03-21 20:20:00,
2013-03-21 16:30:00,24.8,8.4,29.91,WNW,287,9.0,21.0,49,0.00,,,0.00,VWS V12.07,2013-03-21 20:30:00,
2013-03-21 16:40:00,25.0,9.0,29.91,WNW,292,9.0,22.0,50,0.00,,,0.00,VWS V12.07,2013-03-21 20:40:00,
2013-03-21 16:50:00,25.8,7.9,29.91,WNW,300,9.0,19.0,46,0.00,,,0.00,VWS V12.07,2013-03-21 20:50:00,
2013-03-21 17:00:00,25.6,7.7,29.90,NW,312,6.0,26.0,46,0.00,,,0.00,VWS V12.07,2013-03-21 21:00:00,
2013-03-21 17:10:00,25.6,7.7,29.90,West,263,6.0,28.0,46,0.00,,,0.00,VWS V12.07,2013-03-21 21:10:00,
2013-03-21 17:20:00,25.7,7.8,29.90,NNE,28,1.0,28.0,46,0.00,,,0.00,VWS V12.07,2013-03-21 21:20:00,
2013-03-21 17:30:00,25.6,7.2,29.90,NNW,328,8.0,23.0,45,0.00,,,0.00,VWS V12.07,2013-03-21 21:30:00,
2013-03-21 17:40:00,25.4,7.5,29.90,WNW,303,7.0,22.0,46,0.00,,,0.00,VWS V12.07,2013-03-21 21:40:00,
2013-03-21 17:50:00,25.6,7.7,29.91,West,280,9.0,20.0,46,0.00,,,0.00,VWS V12.07,2013-03-21 21:50:00,
2013-03-21 18:00:00,25.1,7.7,29.91,NW,315,12.0,25.0,47,0.00,,,0.00,VWS V12.07,2013-03-21 22:00:00,
2013-03-21 18:10:00,24.8,7.0,29.91,WNW,300,10.0,20.0,46,0.00,,,0.00,VWS V12.07,2013-03-21 22:10:00,
2013-03-21 18:20:00,24.2,7.4,29.91,WNW,290,17.0,21.0,48,0.00,,,0.00,VWS V12.07,2013-03-21 22:20:00,
2013-03-21 18:30:00,24.1,7.7,29.91,WNW,303,6.0,19.0,49,0.00,,,0.00,VWS V12.07,2013-03-21 22:30:00,
2013-03-21 18:40:00,23.9,7.5,29.91,WNW,300,16.0,23.0,49,0.00,,,0.00,VWS V12.07,2013-03-21 22:40:00,
2013-03-21 18:50:00,23.8,7.0,29.91,WSW,244,16.0,20.0,48,0.00,,,0.00,VWS V12.07,2013-03-21 22:50:00,
2013-03-21 19:00:00,23.6,7.3,29.92,WNW,286,10.0,22.0,49,0.00,,,0.00,VWS V12.07,2013-03-21 23:00:00,
2013-03-21 19:10:00,23.6,7.3,29.92,WSW,258,11.0,18.0,49,0.00,,,0.00,VWS V12.07,2013-03-21 23:10:00,
2013-03-21 19:20:00,23.5,7.2,29.92,WSW,254,10.0,23.0,49,0.00,,,0.00,VWS V12.07,2013-03-21 23:20:00,
2013-03-21 19:30:00,23.5,7.2,29.93,WSW,245,12.0,25.0,49,0.00,,,0.00,VWS V12.07,2013-03-21 23:30:00,
2013-03-21 19:40:00,23.3,7.0,29.93,West,263,7.0,21.0,49,0.00,,,0.00,VWS V12.07,2013-03-21 23:40:00,
2013-03-21 19:50:00,23.2,6.9,29.94,NNW,340,5.0,21.0,49,0.00,,,0.00,VWS V12.07,2013-03-21 23:50:00,
2013-03-21 20:00:00,23.2,6.9,29.95,WSW,258,4.0,20.0,49,0.00,,,0.00,VWS V12.07,2013-03-22 00:00:00,
2013-03-21 20:10:00,23.0,6.7,29.95,NW,313,2.0,15.0,49,0.00,,,0.00,VWS V12.07,2013-03-22 00:10:00,
2013-03-21 20:20:00,22.9,7.1,29.95,WNW,294,12.0,13.0,50,0.00,,,0.00,VWS V12.07,2013-03-22 00:20:00,
2013-03-21 20:30:00,22.7,6.9,29.96,West,277,5.0,13.0,50,0.00,,,0.00,VWS V12.07,2013-03-22 00:30:00,
2013-03-21 20:40:00,22.5,6.7,29.96,WNW,292,3.0,12.0,50,0.00,,,0.00,VWS V12.07,2013-03-22 00:40:00,
2013-03-21 20:50:00,22.1,6.8,29.96,WNW,292,3.0,11.0,51,0.00,,,0.00,VWS V12.07,2013-03-22 00:50:00,
2013-03-21 21:00:00,22.1,6.8,29.96,NNW,338,5.0,15.0,51,0.00,,,0.00,VWS V12.07,2013-03-22 01:00:00,
2013-03-21 21:10:00,22.1,7.2,29.96,WNW,292,4.0,14.0,52,0.00,,,0.00,VWS V12.07,2013-03-22 01:10:00,
2013-03-21 21:20:00,21.8,6.9,29.96,West,270,3.0,13.0,52,0.00,,,0.00,VWS V12.07,2013-03-22 01:20:00,
2013-03-21 21:30:00,21.6,7.1,29.96,WNW,292,3.0,12.0,53,0.00,,,0.00,VWS V12.07,2013-03-22 01:30:00,
2013-03-21 21:40:00,21.3,6.8,29.96,NW,315,3.0,11.0,53,0.00,,,0.00,VWS V12.07,2013-03-22 01:40:00,
2013-03-21 21:50:00,21.0,7.0,29.97,NW,315,2.0,6.0,54,0.00,,,0.00,VWS V12.07,2013-03-22 01:50:00,
2013-03-21 22:00:00,20.8,6.8,29.98,WNW,292,1.0,8.0,54,0.00,,,0.00,VWS V12.07,2013-03-22 02:00:00,
2013-03-21 22:10:00,20.8,6.4,29.98,NNE,22,2.0,11.0,53,0.00,,,0.00,VWS V12.07,2013-03-22 02:10:00,
2013-03-21 22:20:00,20.5,6.5,29.98,NNE,22,1.0,4.0,54,0.00,,,0.00,VWS V12.07,2013-03-22 02:20:00,
2013-03-21 22:30:00,20.2,7.0,30.00,NNE,22,1.0,5.0,56,0.00,,,0.00,VWS V12.07,2013-03-22 02:30:00,
2013-03-21 22:40:00,19.9,6.8,30.00,ENE,68,1.0,4.0,56,0.00,,,0.00,VWS V12.07,2013-03-22 02:40:00,
2013-03-21 22:50:00,19.5,6.8,29.99,ENE,68,0.0,3.0,57,0.00,,,0.00,VWS V12.07,2013-03-22 02:50:00,
2013-03-21 23:00:00,19.4,7.4,29.99,SE,135,1.0,5.0,59,0.00,,,0.00,VWS V12.07,2013-03-22 03:00:00,
2013-03-21 23:10:00,20.0,6.8,29.99,North,0,3.0,11.0,56,0.00,,,0.00,VWS V12.07,2013-03-22 03:10:00,
2013-03-21 23:20:00,20.2,7.0,29.99,WNW,292,1.0,5.0,56,0.00,,,0.00,VWS V12.07,2013-03-22 03:20:00,
2013-03-21 23:30:00,19.7,6.9,29.99,WNW,292,1.0,4.0,57,0.00,,,0.00,VWS V12.07,2013-03-22 03:30:00,
2013-03-21 23:40:00,19.1,6.8,29.99,WNW,292,0.0,3.0,58,0.00,,,0.00,VWS V12.07,2013-03-22 03:40:00,
2013-03-21 23:50:00,19.1,6.8,29.99,South,180,3.0,6.0,58,0.00,,,0.00,VWS V12.07,2013-03-22 03:50:00,